User: anonymous   Login
Location: Aula-Vintri
(58.3875°N, 22.4322°E)
Time: 23:20:06
(UTC+00:00)
Language:

Cosmos 1758 Rocket - Orbit

View from above orbital plane
View from above orbital plane
View from above satellite
View from above satellite

Ground track
Ground track

The orbit data is extracted from the following two-line orbital elements,

1 16792U 86046B   19348.97195249 +.00000074 +00000-0 +60801-5 0  9991
2 16792 082.4840 065.3429 0024471 170.5208 002.2717 14.83228827788796
Epoch (UTC): 14 December 2019 23:19:36
Eccentricity: 0.0024471
inclination: 82.4840°
perigee height: 602 km
apogee height: 636 km
right ascension of ascending node: 65.3429°
argument of perigee: 170.5208°
revolutions per day: 14.83228827
mean anomaly at epoch: 2.2717°
orbit number at epoch: 78879

The dashed part of the orbit path shows where the satellite is in the earth's shadow,  

DLR